sat.trackr.live / text

‹ back to catalog

STARLINK-6289

NORAD 56408 · 2023-061AL

PAYLOAD ACTIVE UNKNOWN

§ Identity

Operator
Country
US
Launch date
2023-05-04
Launch site
AFETR
Launch vehicle
Mass (kg)
RCS (m²)

Purposes: comms

External: N2YO · Heavens-Above · Gunter

§ Orbital elements

Epoch: 2026-09-20T01:16:34.736448Z

Period
94.27 min
Inclination
43.0032°
Eccentricity
0.0000983
Mean motion
15.27574337 rev/d
Perigee alt
482.4 km
Apogee alt
483.7 km
Semi-major
6,861.2 km
B*
2.7452e-6
RAAN
169.0504°
Arg perigee
266.9801°
Mean anomaly
93.0939°
Rev number
18,660

§ Raw data

STARLINK-62891 56408U 23061AL  26263.05317982 -.00000186  00000+0  27452-5 0  99992 56408  43.0032 169.0504 0000983 266.9801  93.0939 15.27574337186602

JSON: /api/v1/satellites/56408 · /tle

For live sub-satellite position, see the globe view (requires WebGL).

§ Visibility from observer

Set your observer location to see the next 7 days of passes ≥ 10°. The values pass through the URL so the page stays shareable.

No JS? Fill the form by hand. The geolocation button needs JavaScript.